Data supplied by UK-AIR on 22/6/2019
All Data GMT hour ending 
Status: R =Ratified P=Provisional,P*=As supplied
,,London Haringey Priory Park South,,,,,,,,,,,,,,,,,,,,,,,
Date,time,"Nitric oxide",status,unit,"Nitrogen dioxide",status,unit,"Nitrogen oxides as nitrogen dioxide",status,unit,"Ozone",status,unit
 
01-01-2018,01:00,0.59185,R,ugm-3,7.51013,R,ugm-3,8.41761,R,ugm-3,72.37739,R,ugm-3
01-01-2018,02:00,1.18369,R,ugm-3,8.70705,R,ugm-3,10.52202,R,ugm-3,66.12419,R,ugm-3
01-01-2018,03:00,0.73981,R,ugm-3,7.15174,R,ugm-3,8.28609,R,ugm-3,67.50455,R,ugm-3
01-01-2018,04:00,0.70282,R,ugm-3,5.91199,R,ugm-3,6.98963,R,ugm-3,73.14241,R,ugm-3
01-01-2018,05:00,0.48087,R,ugm-3,4.67400,R,ugm-3,5.41132,R,ugm-3,73.09251,R,ugm-3
01-01-2018,06:00,0.59185,R,ugm-3,6.36398,R,ugm-3,7.27147,R,ugm-3,71.29638,R,ugm-3
01-01-2018,07:00,0.88777,R,ugm-3,8.84138,R,ugm-3,10.20260,R,ugm-3,68.50240,R,ugm-3
01-01-2018,08:00,0.70282,R,ugm-3,10.70327,R,ugm-3,11.78090,R,ugm-3,67.80391,R,ugm-3
01-01-2018,09:00,1.99748,R,ugm-3,21.00636,R,ugm-3,24.06912,R,ugm-3,58.57380,R,ugm-3
01-01-2018,10:00,3.21816,R,ugm-3,38.63799,R,ugm-3,43.57243,R,ugm-3,38.76647,R,ugm-3
01-01-2018,11:00,9.02563,R,ugm-3,55.60621,R,ugm-3,69.44532,R,ugm-3,20.85507,R,ugm-3
01-01-2018,12:00,3.95796,R,ugm-3,36.20718,R,ugm-3,42.27597,R,ugm-3,37.26970,R,ugm-3
01-01-2018,13:00,2.25641,R,ugm-3,22.30038,R,ugm-3,25.76016,R,ugm-3,50.79057,R,ugm-3
01-01-2018,14:00,1.44262,R,ugm-3,13.90925,R,ugm-3,16.12124,R,ugm-3,61.61724,R,ugm-3
01-01-2018,15:00,1.59058,R,ugm-3,12.72412,R,ugm-3,15.16298,R,ugm-3,72.24434,R,ugm-3
01-01-2018,16:00,1.51660,R,ugm-3,10.92105,R,ugm-3,13.24647,R,ugm-3,65.60864,R,ugm-3
01-01-2018,17:00,1.73854,R,ugm-3,18.97956,R,ugm-3,21.64529,R,ugm-3,54.33293,R,ugm-3
01-01-2018,18:00,1.81252,R,ugm-3,20.95174,R,ugm-3,23.73091,R,ugm-3,50.89035,R,ugm-3
01-01-2018,19:00,1.70155,R,ugm-3,22.41836,R,ugm-3,25.02737,R,ugm-3,47.59745,R,ugm-3
01-01-2018,20:00,1.29466,R,ugm-3,11.65593,R,ugm-3,13.64105,R,ugm-3,61.96649,R,ugm-3
01-01-2018,21:00,0.92476,R,ugm-3,8.44645,R,ugm-3,9.86439,R,ugm-3,69.05122,R,ugm-3
01-01-2018,22:00,1.14670,R,ugm-3,7.03515,R,ugm-3,8.79340,R,ugm-3,70.19875,R,ugm-3
01-01-2018,23:00,1.03573,R,ugm-3,7.54351,R,ugm-3,9.13161,R,ugm-3,69.30068,R,ugm-3
01-01-2018,24:00,1.10971,R,ugm-3,5.62631,R,ugm-3,7.32783,R,ugm-3,70.64778,R,ugm-3
02-01-2018,01:00,0.83967,R,ugm-3,5.56204,R,ugm-3,6.84951,R,ugm-3,69.31731,R,ugm-3
02-01-2018,02:00,0.49392,R,ugm-3,6.46852,R,ugm-3,7.22586,R,ugm-3,66.19072,R,ugm-3
02-01-2018,03:00,0.92610,R,ugm-3,6.65264,R,ugm-3,8.07264,R,ugm-3,62.06627,R,ugm-3
02-01-2018,04:00,0.77793,R,ugm-3,7.16209,R,ugm-3,8.35490,R,ugm-3,56.07917,R,ugm-3
02-01-2018,05:00,0.66679,R,ugm-3,7.50185,R,ugm-3,8.52425,R,ugm-3,53.98369,R,ugm-3
02-01-2018,06:00,1.00019,R,ugm-3,13.31328,R,ugm-3,14.84688,R,ugm-3,49.59315,R,ugm-3
02-01-2018,07:00,2.37082,R,ugm-3,31.81665,R,ugm-3,35.45186,R,ugm-3,33.17851,R,ugm-3
02-01-2018,08:00,6.70497,R,ugm-3,46.79217,R,ugm-3,57.07297,R,ugm-3,16.46453,R,ugm-3
02-01-2018,09:00,11.18730,R,ugm-3,56.85496,R,ugm-3,74.00858,R,ugm-3,14.11958,R,ugm-3
02-01-2018,10:00,18.63315,R,ugm-3,65.64797,R,ugm-3,94.21839,R,ugm-3,5.23871,R,ugm-3
02-01-2018,11:00,13.48403,R,ugm-3,60.16405,R,ugm-3,80.83927,R,ugm-3,9.18022,R,ugm-3
02-01-2018,12:00,12.85428,R,ugm-3,60.11351,R,ugm-3,79.82313,R,ugm-3,11.97420,R,ugm-3
02-01-2018,13:00,5.55660,R,ugm-3,43.58519,R,ugm-3,52.10520,R,ugm-3,26.94195,R,ugm-3
02-01-2018,14:00,2.92648,R,ugm-3,30.34368,R,ugm-3,34.83089,R,ugm-3,39.01594,R,ugm-3
02-01-2018,15:00,1.59289,R,ugm-3,20.81582,R,ugm-3,23.25823,R,ugm-3,51.93809,R,ugm-3
02-01-2018,16:00,1.92629,R,ugm-3,28.26436,R,ugm-3,31.21796,R,ugm-3,44.75357,R,ugm-3
02-01-2018,17:00,2.25969,R,ugm-3,36.39031,R,ugm-3,39.85511,R,ugm-3,34.87486,R,ugm-3
02-01-2018,18:00,2.22264,R,ugm-3,32.94709,R,ugm-3,36.35509,R,ugm-3,37.61895,R,ugm-3
02-01-2018,19:00,2.29673,R,ugm-3,33.90608,R,ugm-3,37.42768,R,ugm-3,41.41078,R,ugm-3
02-01-2018,20:00,1.74107,R,ugm-3,24.03220,R,ugm-3,26.70180,R,ugm-3,42.60820,R,ugm-3
02-01-2018,21:00,0.81497,R,ugm-3,13.71018,R,ugm-3,14.95978,R,ugm-3,60.12046,R,ugm-3
02-01-2018,22:00,1.03723,R,ugm-3,12.57905,R,ugm-3,14.16945,R,ugm-3,60.61939,R,ugm-3
02-01-2018,23:00,0.96315,R,ugm-3,9.07972,R,ugm-3,10.55652,R,ugm-3,59.22240,R,ugm-3
02-01-2018,24:00,0.55566,R,ugm-3,5.07546,R,ugm-3,5.92746,R,ugm-3,65.75832,R,ugm-3
03-01-2018,01:00,0.89035,R,ugm-3,3.91152,R,ugm-3,5.27670,R,ugm-3,77.16707,R,ugm-3
03-01-2018,02:00,0.49464,R,ugm-3,2.78449,R,ugm-3,3.54293,R,ugm-3,76.50183,R,ugm-3
03-01-2018,03:00,0.25968,R,ugm-3,1.46751,R,ugm-3,1.86569,R,ugm-3,81.42456,R,ugm-3
03-01-2018,04:00,0.48227,R,ugm-3,1.40890,R,ugm-3,2.14837,R,ugm-3,86.66327,R,ugm-3
03-01-2018,05:00,0.74196,R,ugm-3,1.74569,R,ugm-3,2.88334,R,ugm-3,84.61768,R,ugm-3
03-01-2018,06:00,0.63066,R,ugm-3,2.59477,R,ugm-3,3.56177,R,ugm-3,83.71962,R,ugm-3
03-01-2018,07:00,1.59520,R,ugm-3,6.09100,R,ugm-3,8.53694,R,ugm-3,79.27918,R,ugm-3
03-01-2018,08:00,1.78069,R,ugm-3,10.89483,R,ugm-3,13.62519,R,ugm-3,72.14456,R,ugm-3
03-01-2018,09:00,1.18713,R,ugm-3,11.29613,R,ugm-3,13.11637,R,ugm-3,71.04692,R,ugm-3
03-01-2018,10:00,2.07748,R,ugm-3,11.74010,R,ugm-3,14.92552,R,ugm-3,69.20090,R,ugm-3
03-01-2018,11:00,1.52101,R,ugm-3,10.10575,R,ugm-3,12.43793,R,ugm-3,69.35058,R,ugm-3
03-01-2018,12:00,1.33552,R,ugm-3,8.24179,R,ugm-3,10.28956,R,ugm-3,70.64778,R,ugm-3
03-01-2018,13:00,1.33552,R,ugm-3,7.84604,R,ugm-3,9.89381,R,ugm-3,70.74757,R,ugm-3
03-01-2018,14:00,1.22423,R,ugm-3,7.56440,R,ugm-3,9.44152,R,ugm-3,71.29638,R,ugm-3
03-01-2018,15:00,1.07584,R,ugm-3,8.86612,R,ugm-3,10.51571,R,ugm-3,71.09681,R,ugm-3
03-01-2018,16:00,1.26133,R,ugm-3,11.74772,R,ugm-3,13.68173,R,ugm-3,69.30068,R,ugm-3
03-01-2018,17:00,1.18713,R,ugm-3,14.97097,R,ugm-3,16.79121,R,ugm-3,65.85810,R,ugm-3
03-01-2018,18:00,1.59520,R,ugm-3,17.79396,R,ugm-3,20.23991,R,ugm-3,62.41552,R,ugm-3
03-01-2018,19:00,1.55811,R,ugm-3,15.47633,R,ugm-3,17.86539,R,ugm-3,65.60864,R,ugm-3
03-01-2018,20:00,1.44681,R,ugm-3,14.51626,R,ugm-3,16.73467,R,ugm-3,67.60434,R,ugm-3
03-01-2018,21:00,1.33552,R,ugm-3,14.79998,R,ugm-3,16.84774,R,ugm-3,67.20520,R,ugm-3
03-01-2018,22:00,1.74359,R,ugm-3,19.03637,R,ugm-3,21.70984,R,ugm-3,58.87315,R,ugm-3
03-01-2018,23:00,1.29842,R,ugm-3,16.43987,R,ugm-3,18.43075,R,ugm-3,59.27229,R,ugm-3
03-01-2018,24:00,0.77905,R,ugm-3,11.86530,R,ugm-3,13.05983,R,ugm-3,63.81251,R,ugm-3
04-01-2018,01:00,0.69350,R,ugm-3,10.26068,R,ugm-3,11.32402,R,ugm-3,66.25724,R,ugm-3
04-01-2018,02:00,0.64396,R,ugm-3,6.56196,R,ugm-3,7.54935,R,ugm-3,75.83660,R,ugm-3
04-01-2018,03:00,0.59443,R,ugm-3,6.39256,R,ugm-3,7.30399,R,ugm-3,75.48735,R,ugm-3
04-01-2018,04:00,0.59443,R,ugm-3,6.63791,R,ugm-3,7.54935,R,ugm-3,74.63918,R,ugm-3
04-01-2018,05:00,,,,,,,,,,,,
04-01-2018,06:00,,,,,,,,,,,,
04-01-2018,07:00,,,,,,,,,,,,
04-01-2018,08:00,,,,,,,,,,,,
04-01-2018,09:00,,,,,,,,,,,,
04-01-2018,10:00,,,,,,,,,,,,
04-01-2018,11:00,7.91327,R,ugm-3,45.16603,R,ugm-3,57.29954,R,ugm-3,26.47629,R,ugm-3
04-01-2018,12:00,2.97212,R,ugm-3,24.77203,R,ugm-3,29.32921,R,ugm-3,41.46067,R,ugm-3
04-01-2018,13:00,1.59751,R,ugm-3,16.40500,R,ugm-3,18.85449,R,ugm-3,57.52605,R,ugm-3
04-01-2018,14:00,0.40867,R,ugm-3,8.43260,R,ugm-3,9.05922,R,ugm-3,69.69982,R,ugm-3
04-01-2018,15:00,1.07739,R,ugm-3,7.69034,R,ugm-3,9.34232,R,ugm-3,75.63703,R,ugm-3
04-01-2018,16:00,0.78018,R,ugm-3,9.73142,R,ugm-3,10.92768,R,ugm-3,73.44176,R,ugm-3
04-01-2018,17:00,1.04024,R,ugm-3,12.44677,R,ugm-3,14.04179,R,ugm-3,67.75402,R,ugm-3
04-01-2018,18:00,1.37461,R,ugm-3,14.25551,R,ugm-3,16.36321,R,ugm-3,68.00348,R,ugm-3
04-01-2018,19:00,1.41176,R,ugm-3,18.89801,R,ugm-3,21.06268,R,ugm-3,62.81466,R,ugm-3
04-01-2018,20:00,1.52321,R,ugm-3,25.52153,R,ugm-3,27.85709,R,ugm-3,55.92949,R,ugm-3
04-01-2018,21:00,1.30030,R,ugm-3,19.52187,R,ugm-3,21.51564,R,ugm-3,61.31788,R,ugm-3
04-01-2018,22:00,1.26315,R,ugm-3,23.88196,R,ugm-3,25.81877,R,ugm-3,56.02928,R,ugm-3
04-01-2018,23:00,0.92879,R,ugm-3,20.54448,R,ugm-3,21.96860,R,ugm-3,57.87530,R,ugm-3
04-01-2018,24:00,0.85448,R,ugm-3,26.54690,R,ugm-3,27.85709,R,ugm-3,51.98799,R,ugm-3
05-01-2018,01:00,0.84332,R,ugm-3,21.38859,R,ugm-3,22.68166,R,ugm-3,50.95687,R,ugm-3
05-01-2018,02:00,0.74410,R,ugm-3,18.97013,R,ugm-3,20.11107,R,ugm-3,50.55773,R,ugm-3
05-01-2018,03:00,0.63249,R,ugm-3,15.07747,R,ugm-3,16.04727,R,ugm-3,52.38713,R,ugm-3
05-01-2018,04:00,0.63249,R,ugm-3,13.31964,R,ugm-3,14.28945,R,ugm-3,53.08562,R,ugm-3
05-01-2018,05:00,0.81852,R,ugm-3,10.19920,R,ugm-3,11.45424,R,ugm-3,61.11831,R,ugm-3
05-01-2018,06:00,0.74410,R,ugm-3,11.84431,R,ugm-3,12.98525,R,ugm-3,62.36563,R,ugm-3
05-01-2018,07:00,1.22777,R,ugm-3,19.04127,R,ugm-3,20.92383,R,ugm-3,59.87100,R,ugm-3
05-01-2018,08:00,3.79493,R,ugm-3,51.62248,R,ugm-3,57.44130,R,ugm-3,33.67744,R,ugm-3
05-01-2018,09:00,4.31581,R,ugm-3,51.73109,R,ugm-3,58.34857,R,ugm-3,28.28905,R,ugm-3
05-01-2018,10:00,2.49275,R,ugm-3,28.44250,R,ugm-3,32.26466,R,ugm-3,53.48476,R,ugm-3
05-01-2018,11:00,2.64157,R,ugm-3,24.41513,R,ugm-3,28.46548,R,ugm-3,60.81896,R,ugm-3
05-01-2018,12:00,2.41834,R,ugm-3,19.48393,R,ugm-3,23.19200,R,ugm-3,63.91229,R,ugm-3
05-01-2018,13:00,2.08349,R,ugm-3,14.55375,R,ugm-3,17.74840,R,ugm-3,71.19660,R,ugm-3
05-01-2018,14:00,2.15790,R,ugm-3,16.14078,R,ugm-3,19.44952,R,ugm-3,68.10326,R,ugm-3
05-01-2018,15:00,1.97188,R,ugm-3,14.66819,R,ugm-3,17.69169,R,ugm-3,67.50455,R,ugm-3
05-01-2018,16:00,2.04629,R,ugm-3,20.11110,R,ugm-3,23.24870,R,ugm-3,62.91444,R,ugm-3
05-01-2018,17:00,1.86026,R,ugm-3,24.13881,R,ugm-3,26.99117,R,ugm-3,57.67573,R,ugm-3
05-01-2018,18:00,2.49275,R,ugm-3,32.24167,R,ugm-3,36.06384,R,ugm-3,48.84476,R,ugm-3
05-01-2018,19:00,3.60891,R,ugm-3,46.80435,R,ugm-3,52.33793,R,ugm-3,30.38453,R,ugm-3
05-01-2018,20:00,9.07808,R,ugm-3,64.84254,R,ugm-3,78.76206,R,ugm-3,9.67915,R,ugm-3
05-01-2018,21:00,23.88576,R,ugm-3,69.75266,R,ugm-3,106.37698,R,ugm-3,1.39699,R,ugm-3
05-01-2018,22:00,30.84314,R,ugm-3,69.34827,R,ugm-3,116.64043,R,ugm-3,1.24731,R,ugm-3
05-01-2018,23:00,38.61904,R,ugm-3,63.66286,R,ugm-3,122.87789,R,ugm-3,1.44688,R,ugm-3
05-01-2018,24:00,47.02742,R,ugm-3,57.80150,R,ugm-3,129.90920,R,ugm-3,1.44688,R,ugm-3
06-01-2018,01:00,46.44952,R,ugm-3,53.25812,R,ugm-3,124.47973,R,ugm-3,1.86265,R,ugm-3
06-01-2018,02:00,65.77451,R,ugm-3,48.00795,R,ugm-3,148.86079,R,ugm-3,1.46351,R,ugm-3
06-01-2018,03:00,81.33634,R,ugm-3,47.29746,R,ugm-3,172.01145,R,ugm-3,1.79613,R,ugm-3
06-01-2018,04:00,66.58179,R,ugm-3,42.54889,R,ugm-3,144.63954,R,ugm-3,1.74624,R,ugm-3
06-01-2018,05:00,41.61827,R,ugm-3,44.19735,R,ugm-3,108.01115,R,ugm-3,1.49678,R,ugm-3
06-01-2018,06:00,35.91765,R,ugm-3,38.34362,R,ugm-3,93.41658,R,ugm-3,1.24731,R,ugm-3
06-01-2018,07:00,24.55366,R,ugm-3,39.64031,R,ugm-3,77.28874,R,ugm-3,1.59656,R,ugm-3
06-01-2018,08:00,20.82777,R,ugm-3,39.56088,R,ugm-3,71.49634,R,ugm-3,1.49678,R,ugm-3
06-01-2018,09:00,19.03934,R,ugm-3,45.71039,R,ugm-3,74.90363,R,ugm-3,2.49463,R,ugm-3
06-01-2018,10:00,20.41792,R,ugm-3,38.93996,R,ugm-3,70.24700,R,ugm-3,4.83957,R,ugm-3
06-01-2018,11:00,20.34340,R,ugm-3,38.82707,R,ugm-3,70.01985,R,ugm-3,7.93291,R,ugm-3
06-01-2018,12:00,12.74257,R,ugm-3,32.70681,R,ugm-3,52.24514,R,ugm-3,16.56431,R,ugm-3
06-01-2018,13:00,7.41454,R,ugm-3,29.29155,R,ugm-3,40.66035,R,ugm-3,21.85292,R,ugm-3
06-01-2018,14:00,6.14773,R,ugm-3,28.45134,R,ugm-3,37.87773,R,ugm-3,24.84647,R,ugm-3
06-01-2018,15:00,5.25352,R,ugm-3,26.18800,R,ugm-3,34.24328,R,ugm-3,26.44303,R,ugm-3
06-01-2018,16:00,4.06123,R,ugm-3,27.61864,R,ugm-3,33.84577,R,ugm-3,18.85937,R,ugm-3
06-01-2018,17:00,2.57087,R,ugm-3,20.13625,R,ugm-3,24.07820,R,ugm-3,22.20216,R,ugm-3
06-01-2018,18:00,2.83168,R,ugm-3,23.82509,R,ugm-3,28.16695,R,ugm-3,19.75743,R,ugm-3
06-01-2018,19:00,2.27280,R,ugm-3,22.80803,R,ugm-3,26.29294,R,ugm-3,24.39743,R,ugm-3
06-01-2018,20:00,2.12376,R,ugm-3,21.16254,R,ugm-3,24.41892,R,ugm-3,28.68819,R,ugm-3
06-01-2018,21:00,1.56488,R,ugm-3,18.66898,R,ugm-3,21.06842,R,ugm-3,33.22841,R,ugm-3
06-01-2018,22:00,1.15503,R,ugm-3,17.59376,R,ugm-3,19.36478,R,ugm-3,41.90970,R,ugm-3
06-01-2018,23:00,1.11777,R,ugm-3,14.64111,R,ugm-3,16.35500,R,ugm-3,48.24605,R,ugm-3
06-01-2018,24:00,0.78244,R,ugm-3,12.37266,R,ugm-3,13.57238,R,ugm-3,48.49551,R,ugm-3
07-01-2018,01:00,0.79600,R,ugm-3,10.60890,R,ugm-3,11.82943,R,ugm-3,46.36676,R,ugm-3
07-01-2018,02:00,0.79600,R,ugm-3,7.27240,R,ugm-3,8.49292,R,ugm-3,48.29594,R,ugm-3
07-01-2018,03:00,0.59700,R,ugm-3,6.42113,R,ugm-3,7.33652,R,ugm-3,50.74067,R,ugm-3
07-01-2018,04:00,0.74626,R,ugm-3,6.24915,R,ugm-3,7.39339,R,ugm-3,49.79272,R,ugm-3
07-01-2018,05:00,0.70894,R,ugm-3,4.82769,R,ugm-3,5.91471,R,ugm-3,52.68648,R,ugm-3
07-01-2018,06:00,0.78357,R,ugm-3,6.30569,R,ugm-3,7.50714,R,ugm-3,51.23960,R,ugm-3
07-01-2018,07:00,0.78357,R,ugm-3,8.69432,R,ugm-3,9.89577,R,ugm-3,45.05293,R,ugm-3
07-01-2018,08:00,1.56713,R,ugm-3,15.68247,R,ugm-3,18.08538,R,ugm-3,31.73163,R,ugm-3
07-01-2018,09:00,2.01489,R,ugm-3,13.06227,R,ugm-3,16.15172,R,ugm-3,29.18711,R,ugm-3
07-01-2018,10:00,2.49995,R,ugm-3,12.83036,R,ugm-3,16.66357,R,ugm-3,35.62325,R,ugm-3
07-01-2018,11:00,2.72383,R,ugm-3,11.63401,R,ugm-3,15.81049,R,ugm-3,40.31314,R,ugm-3
07-01-2018,12:00,2.98502,R,ugm-3,11.17665,R,ugm-3,15.75361,R,ugm-3,43.60605,R,ugm-3
07-01-2018,13:00,3.88052,R,ugm-3,13.50026,R,ugm-3,19.45031,R,ugm-3,46.94884,R,ugm-3
07-01-2018,14:00,2.94770,R,ugm-3,12.37131,R,ugm-3,16.89106,R,ugm-3,50.39143,R,ugm-3
07-01-2018,15:00,2.08951,R,ugm-3,10.84357,R,ugm-3,14.04744,R,ugm-3,54.48261,R,ugm-3
07-01-2018,16:00,1.56713,R,ugm-3,14.54502,R,ugm-3,16.94793,R,ugm-3,53.08562,R,ugm-3
07-01-2018,17:00,1.11938,R,ugm-3,15.97091,R,ugm-3,17.68727,R,ugm-3,53.73422,R,ugm-3
07-01-2018,18:00,0.97013,R,ugm-3,17.56469,R,ugm-3,19.05220,R,ugm-3,54.23315,R,ugm-3
07-01-2018,19:00,1.11938,R,ugm-3,19.38324,R,ugm-3,21.09960,R,ugm-3,52.43702,R,ugm-3
07-01-2018,20:00,1.34326,R,ugm-3,19.32433,R,ugm-3,21.38397,R,ugm-3,51.58885,R,ugm-3
07-01-2018,21:00,1.11938,R,ugm-3,18.70078,R,ugm-3,20.41714,R,ugm-3,50.89035,R,ugm-3
07-01-2018,22:00,1.08207,R,ugm-3,19.09922,R,ugm-3,20.75837,R,ugm-3,47.74712,R,ugm-3
07-01-2018,23:00,1.30594,R,ugm-3,21.88392,R,ugm-3,23.88634,R,ugm-3,43.05723,R,ugm-3
07-01-2018,24:00,1.15669,R,ugm-3,19.49665,R,ugm-3,21.27022,R,ugm-3,39.76432,R,ugm-3
08-01-2018,01:00,1.14590,R,ugm-3,15.70957,R,ugm-3,17.46660,R,ugm-3,41.04490,R,ugm-3
08-01-2018,02:00,1.09608,R,ugm-3,17.53262,R,ugm-3,19.21326,R,ugm-3,34.92475,R,ugm-3
08-01-2018,03:00,0.85943,R,ugm-3,15.54129,R,ugm-3,16.85906,R,ugm-3,36.67099,R,ugm-3
08-01-2018,04:00,0.97153,R,ugm-3,14.74289,R,ugm-3,16.23255,R,ugm-3,36.02239,R,ugm-3
08-01-2018,05:00,0.93416,R,ugm-3,9.16151,R,ugm-3,10.59387,R,ugm-3,42.35873,R,ugm-3
08-01-2018,06:00,1.15836,R,ugm-3,8.64688,R,ugm-3,10.42300,R,ugm-3,45.00304,R,ugm-3
08-01-2018,07:00,2.01779,R,ugm-3,17.35341,R,ugm-3,20.44731,R,ugm-3,35.62325,R,ugm-3
08-01-2018,08:00,4.25978,R,ugm-3,29.29394,R,ugm-3,35.82551,R,ugm-3,20.75528,R,ugm-3
08-01-2018,09:00,9.64054,R,ugm-3,36.36479,R,ugm-3,51.14675,R,ugm-3,10.42753,R,ugm-3
08-01-2018,10:00,6.01600,R,ugm-3,27.22763,R,ugm-3,36.45203,R,ugm-3,18.41033,R,ugm-3
08-01-2018,11:00,5.41814,R,ugm-3,26.26478,R,ugm-3,34.57247,R,ugm-3,17.21291,R,ugm-3
08-01-2018,12:00,5.75443,R,ugm-3,25.12261,R,ugm-3,33.94595,R,ugm-3,17.11313,R,ugm-3
08-01-2018,13:00,7.43592,R,ugm-3,23.68349,R,ugm-3,35.08508,R,ugm-3,20.10668,R,ugm-3
08-01-2018,14:00,9.26688,R,ugm-3,24.86300,R,ugm-3,39.07202,R,ugm-3,17.01334,R,ugm-3
08-01-2018,15:00,6.31493,R,ugm-3,26.14275,R,ugm-3,35.82551,R,ugm-3,14.96775,R,ugm-3
08-01-2018,16:00,6.01600,R,ugm-3,27.74023,R,ugm-3,36.96463,R,ugm-3,13.37119,R,ugm-3
08-01-2018,17:00,6.01600,R,ugm-3,28.53762,R,ugm-3,37.76202,R,ugm-3,12.92216,R,ugm-3
08-01-2018,18:00,5.19394,R,ugm-3,27.34898,R,ugm-3,35.31290,R,ugm-3,13.37119,R,ugm-3
08-01-2018,19:00,5.97863,R,ugm-3,27.34188,R,ugm-3,36.50898,R,ugm-3,12.67270,R,ugm-3
08-01-2018,20:00,5.53023,R,ugm-3,27.85854,R,ugm-3,36.33812,R,ugm-3,11.37549,R,ugm-3
08-01-2018,21:00,3.62455,R,ugm-3,23.88884,R,ugm-3,29.44640,R,ugm-3,14.26926,R,ugm-3
08-01-2018,22:00,4.14768,R,ugm-3,26.27628,R,ugm-3,32.63596,R,ugm-3,11.22581,R,ugm-3
08-01-2018,23:00,3.77401,R,ugm-3,26.45053,R,ugm-3,32.23726,R,ugm-3,10.52732,R,ugm-3
08-01-2018,24:00,4.82027,R,ugm-3,31.90886,R,ugm-3,39.29984,R,ugm-3,5.13893,R,ugm-3
09-01-2018,01:00,4.04138,R,ugm-3,33.73154,R,ugm-3,39.92824,R,ugm-3,2.79398,R,ugm-3
09-01-2018,02:00,2.14542,R,ugm-3,25.61084,R,ugm-3,28.90044,R,ugm-3,8.51499,R,ugm-3
09-01-2018,03:00,2.24521,R,ugm-3,25.41980,R,ugm-3,28.86241,R,ugm-3,7.43398,R,ugm-3
09-01-2018,04:00,2.84393,R,ugm-3,27.06859,R,ugm-3,31.42923,R,ugm-3,7.03484,R,ugm-3
09-01-2018,05:00,5.12657,R,ugm-3,32.98026,R,ugm-3,40.84089,R,ugm-3,2.09549,R,ugm-3
09-01-2018,06:00,6.73563,R,ugm-3,33.65028,R,ugm-3,43.97810,R,ugm-3,1.99570,R,ugm-3
09-01-2018,07:00,12.94738,R,ugm-3,37.47317,R,ugm-3,57.32554,R,ugm-3,0.84817,R,ugm-3
09-01-2018,08:00,18.67267,R,ugm-3,37.25056,R,ugm-3,65.88160,R,ugm-3,0.94796,R,ugm-3
09-01-2018,09:00,24.80958,R,ugm-3,37.76579,R,ugm-3,75.80661,R,ugm-3,1.19742,R,ugm-3
09-01-2018,10:00,23.01341,R,ugm-3,33.61799,R,ugm-3,68.90473,R,ugm-3,1.44688,R,ugm-3
09-01-2018,11:00,19.45850,R,ugm-3,30.05642,R,ugm-3,59.89236,R,ugm-3,2.24516,R,ugm-3
09-01-2018,12:00,38.20601,R,ugm-3,34.56515,R,ugm-3,93.14688,R,ugm-3,1.79613,R,ugm-3
09-01-2018,13:00,57.14062,R,ugm-3,37.58916,R,ugm-3,125.20355,R,ugm-3,1.49678,R,ugm-3
09-01-2018,14:00,40.22670,R,ugm-3,35.34555,R,ugm-3,97.02562,R,ugm-3,1.94581,R,ugm-3
09-01-2018,15:00,47.56105,R,ugm-3,35.85000,R,ugm-3,108.77593,R,ugm-3,1.54667,R,ugm-3
09-01-2018,16:00,44.30550,R,ugm-3,38.56017,R,ugm-3,106.49432,R,ugm-3,1.19742,R,ugm-3
09-01-2018,17:00,39.88992,R,ugm-3,41.90822,R,ugm-3,103.07190,R,ugm-3,0.99785,R,ugm-3
09-01-2018,18:00,60.05939,R,ugm-3,48.97098,R,ugm-3,141.06076,R,ugm-3,1.34710,R,ugm-3
09-01-2018,19:00,69.71380,R,ugm-3,49.51161,R,ugm-3,156.40462,R,ugm-3,1.24731,R,ugm-3
09-01-2018,20:00,42.06029,R,ugm-3,47.82089,R,ugm-3,112.31243,R,ugm-3,0.74839,R,ugm-3
09-01-2018,21:00,15.23001,R,ugm-3,44.92493,R,ugm-3,68.27729,R,ugm-3,1.99570,R,ugm-3
09-01-2018,22:00,6.84789,R,ugm-3,39.52442,R,ugm-3,50.02438,R,ugm-3,5.83742,R,ugm-3
09-01-2018,23:00,7.25952,R,ugm-3,39.29256,R,ugm-3,50.42366,R,ugm-3,4.49033,R,ugm-3
09-01-2018,24:00,3.89170,R,ugm-3,30.13935,R,ugm-3,36.10654,R,ugm-3,7.18452,R,ugm-3
10-01-2018,01:00,2.84802,R,ugm-3,25.64245,R,ugm-3,30.00935,R,ugm-3,8.31542,R,ugm-3
10-01-2018,02:00,1.69882,R,ugm-3,20.54960,R,ugm-3,23.15442,R,ugm-3,10.97635,R,ugm-3
10-01-2018,03:00,1.87370,R,ugm-3,19.91967,R,ugm-3,22.79263,R,ugm-3,10.12818,R,ugm-3
10-01-2018,04:00,1.57390,R,ugm-3,19.00836,R,ugm-3,21.42165,R,ugm-3,12.82237,R,ugm-3
10-01-2018,05:00,1.68633,R,ugm-3,21.63508,R,ugm-3,24.22074,R,ugm-3,17.61205,R,ugm-3
10-01-2018,06:00,1.23664,R,ugm-3,15.81241,R,ugm-3,17.70856,R,ugm-3,41.01164,R,ugm-3
10-01-2018,07:00,1.79875,R,ugm-3,19.74897,R,ugm-3,22.50701,R,ugm-3,46.44992,R,ugm-3
10-01-2018,08:00,2.51075,R,ugm-3,34.42358,R,ugm-3,38.27334,R,ugm-3,42.55830,R,ugm-3
10-01-2018,09:00,2.96044,R,ugm-3,34.07681,R,ugm-3,38.61609,R,ugm-3,39.16561,R,ugm-3
10-01-2018,10:00,5.09645,R,ugm-3,39.59879,R,ugm-3,47.41324,R,ugm-3,30.13507,R,ugm-3
10-01-2018,11:00,3.41013,R,ugm-3,24.01890,R,ugm-3,29.24769,R,ugm-3,48.39573,R,ugm-3
10-01-2018,12:00,4.57182,R,ugm-3,22.80891,R,ugm-3,29.81893,R,ugm-3,50.29164,R,ugm-3
10-01-2018,13:00,6.33309,R,ugm-3,30.61921,R,ugm-3,40.32982,R,ugm-3,43.90540,R,ugm-3
10-01-2018,14:00,7.04510,R,ugm-3,33.98319,R,ugm-3,44.78552,R,ugm-3,38.81637,R,ugm-3
10-01-2018,15:00,6.59541,R,ugm-3,39.62348,R,ugm-3,49.73630,R,ugm-3,39.01594,R,ugm-3
10-01-2018,16:00,6.22067,R,ugm-3,49.18564,R,ugm-3,58.72387,R,ugm-3,21.35399,R,ugm-3
10-01-2018,17:00,23.00899,R,ugm-3,68.51506,R,ugm-3,103.79502,R,ugm-3,5.93721,R,ugm-3
10-01-2018,18:00,52.27612,R,ugm-3,70.13868,R,ugm-3,150.29427,R,ugm-3,0.59871,R,ugm-3
10-01-2018,19:00,80.75630,R,ugm-3,75.71090,R,ugm-3,199.53549,R,ugm-3,0.84817,R,ugm-3
10-01-2018,20:00,68.42738,R,ugm-3,70.79411,R,ugm-3,175.71462,R,ugm-3,0.89807,R,ugm-3
10-01-2018,21:00,60.07069,R,ugm-3,70.41178,R,ugm-3,162.51889,R,ugm-3,1.14753,R,ugm-3
10-01-2018,22:00,69.81391,R,ugm-3,66.38315,R,ugm-3,173.42965,R,ugm-3,1.19742,R,ugm-3
10-01-2018,23:00,97.50714,R,ugm-3,64.07924,R,ugm-3,213.58809,R,ugm-3,1.09764,R,ugm-3
10-01-2018,24:00,102.94086,R,ugm-3,59.00374,R,ugm-3,216.84418,R,ugm-3,1.19742,R,ugm-3
11-01-2018,01:00,32.99138,R,ugm-3,52.90973,R,ugm-3,103.49580,R,ugm-3,1.26394,R,ugm-3
11-01-2018,02:00,14.54620,R,ugm-3,47.04900,R,ugm-3,69.35286,R,ugm-3,0.93133,R,ugm-3
11-01-2018,03:00,12.25930,R,ugm-3,41.10525,R,ugm-3,59.90258,R,ugm-3,1.04774,R,ugm-3
11-01-2018,04:00,5.54855,R,ugm-3,39.39154,R,ugm-3,47.89920,R,ugm-3,1.09764,R,ugm-3
11-01-2018,05:00,4.68628,R,ugm-3,37.45562,R,ugm-3,44.64114,R,ugm-3,1.24731,R,ugm-3
11-01-2018,06:00,7.49804,R,ugm-3,37.03111,R,ugm-3,48.52795,R,ugm-3,0.74839,R,ugm-3
11-01-2018,07:00,9.78494,R,ugm-3,37.12559,R,ugm-3,52.12896,R,ugm-3,1.04774,R,ugm-3
11-01-2018,08:00,22.04424,R,ugm-3,36.96208,R,ugm-3,70.76278,R,ugm-3,0.84817,R,ugm-3
11-01-2018,09:00,30.92942,R,ugm-3,35.62751,R,ugm-3,83.05195,R,ugm-3,1.09764,R,ugm-3
11-01-2018,10:00,27.48032,R,ugm-3,33.02812,R,ugm-3,75.16402,R,ugm-3,1.49678,R,ugm-3
11-01-2018,11:00,21.85679,R,ugm-3,27.30385,R,ugm-3,60.81712,R,ugm-3,2.04559,R,ugm-3
11-01-2018,12:00,18.25773,R,ugm-3,24.13417,R,ugm-3,52.12896,R,ugm-3,3.24301,R,ugm-3
11-01-2018,13:00,12.55922,R,ugm-3,21.84009,R,ugm-3,41.09728,R,ugm-3,3.94151,R,ugm-3
11-01-2018,14:00,10.87216,R,ugm-3,22.65495,R,ugm-3,39.32536,R,ugm-3,4.73979,R,ugm-3
11-01-2018,15:00,10.75969,R,ugm-3,23.57047,R,ugm-3,40.06842,R,ugm-3,4.54022,R,ugm-3
11-01-2018,16:00,9.78494,R,ugm-3,25.86528,R,ugm-3,40.86865,R,ugm-3,3.04344,R,ugm-3
11-01-2018,17:00,12.10934,R,ugm-3,29.61761,R,ugm-3,48.18499,R,ugm-3,2.39484,R,ugm-3
11-01-2018,18:00,12.74667,R,ugm-3,32.06991,R,ugm-3,51.61453,R,ugm-3,,,
11-01-2018,19:00,8.69773,R,ugm-3,31.93356,R,ugm-3,45.26989,R,ugm-3,2.24516,R,ugm-3
11-01-2018,20:00,5.96094,R,ugm-3,30.35685,R,ugm-3,39.49683,R,ugm-3,3.99140,R,ugm-3
11-01-2018,21:00,4.08643,R,ugm-3,28.14391,R,ugm-3,34.40969,R,ugm-3,6.13678,R,ugm-3
11-01-2018,22:00,2.47435,R,ugm-3,22.38484,R,ugm-3,26.17880,R,ugm-3,10.52732,R,ugm-3
11-01-2018,23:00,1.91200,R,ugm-3,19.70325,R,ugm-3,22.63494,R,ugm-3,13.32130,R,ugm-3
11-01-2018,24:00,1.79953,R,ugm-3,19.47559,R,ugm-3,22.23483,R,ugm-3,14.16947,R,ugm-3
12-01-2018,01:00,2.15037,R,ugm-3,20.64782,R,ugm-3,23.94501,R,ugm-3,11.44201,R,ugm-3
12-01-2018,02:00,1.30022,R,ugm-3,17.22337,R,ugm-3,19.21702,R,ugm-3,12.83900,R,ugm-3
12-01-2018,03:00,0.90016,R,ugm-3,16.06380,R,ugm-3,17.44402,R,ugm-3,12.87227,R,ugm-3
12-01-2018,04:00,1.35023,R,ugm-3,14.63018,R,ugm-3,16.70051,R,ugm-3,12.87227,R,ugm-3
12-01-2018,05:00,1.05018,R,ugm-3,13.14567,R,ugm-3,14.75592,R,ugm-3,14.66840,R,ugm-3
12-01-2018,06:00,1.50026,R,ugm-3,14.45733,R,ugm-3,16.75770,R,ugm-3,13.62065,R,ugm-3
12-01-2018,07:00,5.28841,R,ugm-3,24.66309,R,ugm-3,32.77188,R,ugm-3,5.63785,R,ugm-3
12-01-2018,08:00,21.34119,R,ugm-3,30.07577,R,ugm-3,62.79847,R,ugm-3,,,
12-01-2018,09:00,40.46949,R,ugm-3,36.09170,R,ugm-3,98.14406,R,ugm-3,0.89807,R,ugm-3
12-01-2018,10:00,25.39189,R,ugm-3,42.10951,R,ugm-3,81.04320,R,ugm-3,2.69420,R,ugm-3
12-01-2018,11:00,40.35698,R,ugm-3,51.07734,R,ugm-3,112.95718,R,ugm-3,2.84387,R,ugm-3
12-01-2018,12:00,15.11511,R,ugm-3,50.77502,R,ugm-3,73.95120,R,ugm-3,8.93076,R,ugm-3
12-01-2018,13:00,10.95189,R,ugm-3,44.06122,R,ugm-3,60.85389,R,ugm-3,12.22366,R,ugm-3
12-01-2018,14:00,9.33911,R,ugm-3,42.93092,R,ugm-3,57.25070,R,ugm-3,14.41893,R,ugm-3
12-01-2018,15:00,8.17641,R,ugm-3,41.11052,R,ugm-3,53.64751,R,ugm-3,16.71399,R,ugm-3
12-01-2018,16:00,11.70202,R,ugm-3,49.60268,R,ugm-3,67.54553,R,ugm-3,7.28431,R,ugm-3
12-01-2018,17:00,15.22763,R,ugm-3,58.26642,R,ugm-3,81.61513,R,ugm-3,3.44258,R,ugm-3
12-01-2018,18:00,36.38129,R,ugm-3,64.20811,R,ugm-3,119.99198,R,ugm-3,1.44688,R,ugm-3
12-01-2018,19:00,7.27626,R,ugm-3,45.00725,R,ugm-3,56.16402,R,ugm-3,16.21506,R,ugm-3
12-01-2018,20:00,2.58795,R,ugm-3,34.63749,R,ugm-3,38.60562,R,ugm-3,32.57980,R,ugm-3
12-01-2018,21:00,2.28790,R,ugm-3,27.71960,R,ugm-3,31.22765,R,ugm-3,37.61895,R,ugm-3
12-01-2018,22:00,1.68779,R,ugm-3,24.12146,R,ugm-3,26.70937,R,ugm-3,40.11357,R,ugm-3
12-01-2018,23:00,1.23771,R,ugm-3,20.06450,R,ugm-3,21.96231,R,ugm-3,46.84906,R,ugm-3